Location: Vista Encantada
(35.1109°N, 106.5681°W)
Time: 08:29:45
(UTC+00:00)

SAR-Lupe-1 - Pass Details

Date: 29 October 2020
Orbit: 480 x 485 km, 98.2° (Epoch: 26 November)

Event Time Altitude Azimuth Distance (km) Brightness Sun altitude
Rises 12:13:20 0° 167° (SSE) 2,526 8.0 -15.2°
Reaches altitude 10° 12:15:22 10° 167° (SSE) 1,651 7.0 -14.8°
Maximum altitude 12:18:55 89° 248° (WSW) 486 4.0 -14.1°
Drops below altitude 10° 12:22:30 10° 347° (NNW) 1,662 6.6 -13.4°
Sets 12:24:34 0° 348° (NNW) 2,545 7.5 -13.0°
